[[{"header":{"parameterUnit":"m.s-1","parameterCategory":1,"la1":30.2991,"la2":30.254,"lo1":-89.0895,"lo2":-89.0444,"dy":0.0017,"dx":0.0017,"nx":28,"ny":28,"refTime":"2025-03-03T03:00:00:Z","depth":0,"parameterNumber":2,"parameterNumberName":"U-component_of_WINDS"},"data":[0,0,0,0,0,0,0,0,0,0,0,0,0,0,0,0,0,0,0,0,0,0,0,0,0,0,0,0,0,0,0,0,0,0,0,0,0,0,0,0,0,0,0,0,0,0,0,0,0,0,0,0,0,0,0,0,0,0,-1.4551,-1.4551,0,-1.4558,-1.4558,-1.4558,-1.4538,-1.4537,-1.4537,-1.4536,-1.4545,-1.4546,-1.4547,0,0,0,0,0,0,0,0,0,0,0,0,0,-1.4522,-1.4522,-1.4551,-1.4551,-1.4551,-1.4558,-1.4558,-1.4558,-1.4538,-1.4537,-1.4537,-1.4536,-1.4545,-1.4546,-1.4547,0,0,0,0,0,0,0,0,0,0,0,0,0,-1.4532,-1.4523,-1.4551,-1.4542,-1.4541,-1.4558,-1.4558,-1.4558,-1.4538,-1.4537,-1.4536,-1.4535,-1.4545,-1.4546,-1.4547,-1.4574,0,0,-1.4551,-1.4551,0,0,0,0,0,0,0,0,-1.4532,-1.4533,-1.4543,-1.4543,-1.4542,-1.4546,-1.4551,-1.4564,-1.4538,-1.4539,-1.4536,-1.4535,-1.4546,-1.4547,-1.4551,-1.4574,-1.4575,-1.4551,-1.4552,-1.4552,-1.4553,0,0,0,0,0,0,0,-1.4531,-1.4533,-1.4554,-1.4544,-1.4543,-1.4538,-1.4538,-1.4553,-1.4548,-1.4539,-1.4538,-1.4539,-1.4546,-1.455,-1.4551,-1.4575,-1.4551,-1.4552,-1.4553,-1.4553,-1.4621,-1.4622,0,0,0,0,0,0,-1.4531,-1.4532,-1.4554,-1.4554,-1.4534,-1.4539,-1.454,-1.4546,-1.4548,-1.4547,-1.454,-1.4538,-1.4548,-1.455,-1.4551,-1.4583,-1.4552,-1.4553,-1.4554,-1.4619,-1.4621,-1.4622,0,0,0,0,0,0,-1.4531,-1.4533,-1.4554,-1.4543,-1.4545,-1.4541,-1.4548,-1.4546,-1.455,-1.4548,-1.4547,-1.4545,-1.4547,-1.4549,-1.4568,-1.4583,-1.4554,-1.4555,-1.4618,-1.462,-1.4621,-1.4647,0,0,0,0,0,0,-1.453,-1.4533,-1.4543,-1.4543,-1.4546,-1.457,-1.4549,-1.4547,-1.4552,-1.455,-1.4553,-1.4552,-1.4547,-1.4566,-1.457,-1.4584,-1.4556,-1.4617,-1.4619,-1.4621,-1.4645,-1.465,-1.4653,0,0,0,0,0,-1.4529,-1.4551,-1.4544,-1.4546,-1.4558,-1.4571,-1.4573,-1.4566,-1.4554,-1.4564,-1.4562,-1.4552,-1.4581,-1.4569,-1.4572,-1.4587,-1.4616,-1.4618,-1.4621,-1.4643,-1.4649,-1.4653,0,0,0,0,0,0,-1.4553,-1.455,-1.4543,-1.4565,-1.4568,-1.4568,-1.458,-1.4571,-1.4579,-1.4576,-1.4568,-1.4568,-1.4589,-1.459,-1.4576,-1.4613,-1.4596,-1.46,-1.4613,-1.4618,-1.4622,-1.4622,-1.4557,0,0,0,0,0,-1.4561,-1.4571,-1.4568,-1.4588,-1.459,-1.4585,-1.459,-1.4584,-1.4588,-1.4589,-1.4589,-1.4593,-1.4603,-1.461,-1.4619,-1.4644,-1.4645,-1.4657,-1.4661,-1.4664,-1.4668,-1.4681,-1.4687,-1.463,-1.4629,-1.4629,0,0,-1.4578,-1.4577,-1.4585,-1.4593,-1.4595,-1.4607,-1.4586,-1.4599,-1.4608,-1.4592,-1.4609,-1.4609,-1.4613,-1.4636,-1.4645,-1.4637,-1.4683,-1.4667,-1.467,-1.4671,-1.4684,-1.469,-1.4695,-1.4631,-1.4631,-1.4631,0,0,-1.4614,-1.4614,-1.4631,-1.4633,-1.4636,-1.4632,-1.4636,-1.4636,-1.4635,-1.4653,-1.4641,-1.4651,-1.4668,-1.4671,-1.4676,-1.4712,-1.4703,-1.4715,-1.4737,-1.4751,-1.4755,-1.4759,-1.4773,-1.4778,-1.4718,-1.4718,-1.4718,0,-1.4635,-1.4651,-1.4641,-1.4655,-1.466,-1.4644,-1.4661,-1.4664,-1.4669,-1.4673,-1.4663,-1.4684,-1.4686,-1.4709,-1.4717,-1.4721,-1.4726,-1.4716,-1.4755,-1.4759,-1.4763,-1.4776,-1.4781,-1.472,-1.4719,-1.4719,-1.4719,0,-1.4677,-1.4688,-1.4702,-1.4707,-1.4712,-1.4728,-1.4721,-1.4728,-1.4721,-1.4718,-1.4736,-1.4737,-1.4746,-1.4751,-1.4745,-1.4773,-1.4768,-1.4757,-1.474,-1.477,-1.4783,-1.4787,-1.4722,-1.4721,-1.4721,-1.472,0,0,-1.4731,-1.4729,-1.4735,-1.4737,-1.4738,-1.4747,-1.4761,-1.4769,-1.4776,-1.478,-1.4793,-1.4807,-1.4796,-1.4801,-1.4795,-1.4806,-1.4836,-1.4794,-1.4794,-1.4803,-1.4869,-1.4878,-1.4884,-1.483,-1.483,-1.4831,-1.4869,0,-1.4768,-1.4793,-1.4784,-1.4809,-1.482,-1.4805,-1.4817,-1.482,-1.4817,-1.4826,-1.4823,-1.4834,-1.4819,-1.4821,-1.4832,-1.483,-1.485,-1.4827,-1.4843,-1.4843,-1.4844,-1.4891,-1.4901,-1.4937,-1.4873,-1.4874,-1.4875,0,-1.4815,-1.482,-1.4847,-1.4846,-1.485,-1.4861,-1.4868,-1.4876,-1.4879,-1.4876,-1.488,-1.4871,-1.4886,-1.4867,-1.4888,-1.4873,-1.4878,-1.4878,-1.488,-1.4882,-1.4862,-1.4896,-1.4948,-1.4954,-1.4882,-1.4882,-1.4881,0,-1.4853,-1.4867,-1.4884,-1.4886,-1.4885,-1.4894,-1.4894,-1.4895,-1.49,-1.4906,-1.491,-1.4917,-1.4921,-1.4927,-1.4921,-1.4908,-1.4943,-1.4924,-1.4942,-1.4942,-1.4952,-1.4952,-1.5007,-1.4952,-1.4952,-1.4952,-1.4952,0,-1.4897,-1.4914,-1.4902,-1.4913,-1.4932,-1.4921,-1.494,-1.4938,-1.4939,-1.495,-1.4936,-1.4947,-1.4937,-1.4946,-1.4941,-1.4959,-1.4961,-1.496,-1.4959,-1.4962,-1.4963,-1.4967,-1.4965,-1.4954,-1.4953,-1.4953,-1.4953,0,-1.4944,-1.4936,-1.4955,-1.4951,-1.4951,-1.4965,-1.4963,-1.4973,-1.4969,-1.4983,-1.4985,-1.4979,-1.4989,-1.4983,-1.4994,-1.499,-1.5014,-1.5009,-1.5014,-1.5013,-1.5032,-1.5031,-1.5093,-1.5101,-1.5041,-1.5041,-1.5042,0,-1.4973,-1.4986,-1.4984,-1.4989,-1.499,-1.5,-1.5005,-1.4994,-1.5,-1.5003,-1.5013,-1.5022,-1.5029,-1.5047,-1.5044,-1.5052,-1.5048,-1.5069,-1.5049,-1.5052,-1.505,-1.505,-1.5051,-1.5074,-1.5074,-1.5075,-1.5075,0,-1.5026,-1.5021,-1.5029,-1.5035,-1.5041,-1.5045,-1.5048,-1.5054,-1.5043,-1.505,-1.5061,-1.5066,-1.5076,-1.5086,-1.5093,-1.5093,-1.5083,-1.5081,-1.5086,-1.5091,-1.5094,-1.5094,-1.5026,-1.508,-1.508,-1.5079,-1.5079,-1.5079,-1.5066,-1.5077,-1.5077,-1.5086,-1.5087,-1.509,-1.5099,-1.5095,-1.5104,-1.5111,-1.5104,-1.5116,-1.5118,-1.5125,-1.5127,-1.5137,-1.5128,-1.5135,-1.5137,-1.514,-1.5143,-1.509,-1.5138,-1.5138,-1.5138,-1.5137,-1.5137,0,-1.512,-1.5119,-1.5127,-1.5131,-1.5138,-1.5126,-1.5128,-1.5135,-1.5146,-1.5148,-1.5154,-1.5166,-1.5175,-1.5172,-1.518,-1.5188,-1.5184,-1.5191,-1.5191,-1.5192,-1.5149,-1.5145,-1.5194,-1.5194,-1.5194,-1.5194,-1.5194,-1.5194,-1.5149,-1.5167,-1.5162,-1.518,-1.5178,-1.519,-1.5192,-1.5195,-1.5196,-1.521,-1.5217,-1.5214,-1.5214,-1.5221,-1.5229,-1.5228,-1.5232,-1.5241,-1.5239,-1.52,-1.5194,-1.5189,-1.5185,-1.5242,-1.5242,-1.528,-1.5281,-1.5281]},{"header":{"parameterUnit":"m.s-1","parameterCategory":1,"la1":30.2991,"la2":30.254,"lo1":-89.0895,"lo2":-89.0444,"dy":0.0017,"dx":0.0017,"nx":28,"ny":28,"refTime":"2025-03-03T03:00:00:Z","depth":0,"parameterNumber":3,"parameterNumberName":"V-component_of_WINDS"},"data":[0,0,0,0,0,0,0,0,0,0,0,0,0,0,0,0,0,0,0,0,0,0,0,0,0,0,0,0,0,0,0,0,0,0,0,0,0,0,0,0,0,0,0,0,0,0,0,0,0,0,0,0,0,0,0,0,0,0,-0.7237,-0.7239,0,-0.7393,-0.7395,-0.7396,-0.7472,-0.7472,-0.7472,-0.7472,-0.7633,-0.7637,-0.7641,0,0,0,0,0,0,0,0,0,0,0,0,0,-0.7007,-0.7011,-0.7237,-0.7239,-0.7241,-0.7393,-0.7395,-0.7397,-0.7472,-0.7472,-0.7472,-0.7472,-0.7631,-0.7637,-0.7642,0,0,0,0,0,0,0,0,0,0,0,0,0,-0.7129,-0.7012,-0.7237,-0.7297,-0.7304,-0.7392,-0.7395,-0.7397,-0.7472,-0.7472,-0.7472,-0.7472,-0.763,-0.7636,-0.7642,-0.7683,0,0,-0.7662,-0.7665,0,0,0,0,0,0,0,0,-0.7122,-0.7138,-0.7286,-0.7293,-0.7301,-0.7413,-0.7373,-0.7493,-0.7472,-0.7408,-0.7472,-0.7472,-0.756,-0.7572,-0.7601,-0.769,-0.7697,-0.7663,-0.7667,-0.7669,-0.7671,0,0,0,0,0,0,0,-0.7114,-0.7131,-0.7299,-0.7288,-0.7297,-0.7317,-0.7334,-0.7396,-0.7483,-0.7414,-0.742,-0.7437,-0.7564,-0.7595,-0.7606,-0.77,-0.7662,-0.7668,-0.7672,-0.7675,-0.7831,-0.7831,0,0,0,0,0,0,-0.7095,-0.7124,-0.7294,-0.7304,-0.721,-0.7321,-0.734,-0.7377,-0.7482,-0.7498,-0.7437,-0.744,-0.7584,-0.7598,-0.7612,-0.7667,-0.7669,-0.7675,-0.7679,-0.783,-0.7831,-0.7831,0,0,0,0,0,0,-0.709,-0.711,-0.7288,-0.7215,-0.7239,-0.7325,-0.7366,-0.738,-0.7412,-0.75,-0.7515,-0.7453,-0.7585,-0.7603,-0.7665,-0.7673,-0.7678,-0.7684,-0.783,-0.7831,-0.7831,-0.7776,0,0,0,0,0,0,-0.7083,-0.7107,-0.7123,-0.7215,-0.7243,-0.7338,-0.7366,-0.7383,-0.7422,-0.7428,-0.7518,-0.7533,-0.7586,-0.7655,-0.7671,-0.7682,-0.7689,-0.783,-0.783,-0.7831,-0.7778,-0.7775,-0.7772,0,0,0,0,0,-0.7074,-0.7102,-0.7124,-0.7144,-0.7265,-0.7338,-0.7354,-0.7413,-0.7423,-0.744,-0.7496,-0.7531,-0.7669,-0.766,-0.768,-0.7693,-0.7829,-0.783,-0.7831,-0.7779,-0.7775,-0.7772,0,0,0,0,0,0,-0.7009,-0.7115,-0.714,-0.7198,-0.7258,-0.735,-0.7374,-0.7408,-0.7467,-0.747,-0.7541,-0.7561,-0.7617,-0.7661,-0.7649,-0.7738,-0.7753,-0.7757,-0.7707,-0.7704,-0.7702,-0.769,-0.7694,0,0,0,0,0,-0.7001,-0.7051,-0.7141,-0.7184,-0.7213,-0.7288,-0.7322,-0.7362,-0.7428,-0.7454,-0.7515,-0.7578,-0.7636,-0.7672,-0.7731,-0.7784,-0.7806,-0.7803,-0.78,-0.7797,-0.7801,-0.7833,-0.7833,-0.7833,-0.7833,-0.7833,0,0,-0.6986,-0.705,-0.7077,-0.7172,-0.7224,-0.7275,-0.7309,-0.7361,-0.74,-0.7462,-0.7525,-0.7571,-0.7646,-0.7704,-0.7733,-0.7743,-0.7805,-0.7798,-0.7795,-0.7801,-0.7834,-0.7834,-0.7834,-0.7834,-0.7833,-0.7833,0,0,-0.6984,-0.7037,-0.7078,-0.7129,-0.7207,-0.7257,-0.7266,-0.7354,-0.7387,-0.7451,-0.7499,-0.7546,-0.7644,-0.7696,-0.7734,-0.7752,-0.7786,-0.7769,-0.7755,-0.7786,-0.7786,-0.7786,-0.7793,-0.7795,-0.7772,-0.7771,-0.7771,0,-0.6955,-0.7033,-0.7095,-0.7145,-0.7186,-0.7244,-0.7287,-0.7333,-0.7426,-0.7453,-0.7462,-0.7587,-0.7641,-0.7713,-0.7717,-0.7746,-0.776,-0.7759,-0.7781,-0.7782,-0.7783,-0.7791,-0.7793,-0.7769,-0.7769,-0.7769,-0.777,0,-0.6995,-0.7048,-0.7072,-0.716,-0.7203,-0.7249,-0.7318,-0.7355,-0.7391,-0.744,-0.7505,-0.7572,-0.7645,-0.7665,-0.7701,-0.7742,-0.7746,-0.7767,-0.7784,-0.7779,-0.7788,-0.7791,-0.7765,-0.7766,-0.7767,-0.7768,0,0,-0.6956,-0.7077,-0.7085,-0.7126,-0.7216,-0.7259,-0.7307,-0.7378,-0.7408,-0.747,-0.7513,-0.7595,-0.7615,-0.7659,-0.7702,-0.7729,-0.774,-0.7748,-0.775,-0.7744,-0.7789,-0.7773,-0.7775,-0.7762,-0.7763,-0.7764,-0.7783,0,-0.6967,-0.7057,-0.7115,-0.7182,-0.7232,-0.7288,-0.7331,-0.7391,-0.7438,-0.7488,-0.754,-0.7597,-0.7619,-0.7646,-0.7675,-0.7732,-0.775,-0.7731,-0.7804,-0.7806,-0.7784,-0.778,-0.7763,-0.7778,-0.7787,-0.7787,-0.7788,0,-0.6993,-0.7053,-0.7124,-0.7209,-0.7232,-0.727,-0.734,-0.7387,-0.7456,-0.7488,-0.7537,-0.758,-0.7635,-0.7646,-0.7723,-0.7709,-0.7742,-0.7774,-0.7776,-0.7786,-0.7797,-0.779,-0.7784,-0.7787,-0.7793,-0.7793,-0.7793,0,-0.6958,-0.7057,-0.7113,-0.7146,-0.7246,-0.7271,-0.7313,-0.7383,-0.7422,-0.7483,-0.7509,-0.7576,-0.7613,-0.7664,-0.7724,-0.7726,-0.7795,-0.7811,-0.7824,-0.7822,-0.7836,-0.7834,-0.7836,-0.7856,-0.7856,-0.7856,-0.7856,0,-0.6965,-0.7007,-0.7099,-0.7133,-0.7182,-0.7248,-0.7295,-0.7342,-0.7403,-0.7449,-0.7501,-0.7542,-0.7619,-0.767,-0.7718,-0.7774,-0.779,-0.7818,-0.7831,-0.7814,-0.7811,-0.7837,-0.7838,-0.7856,-0.7856,-0.7856,-0.7856,0,-0.6935,-0.6998,-0.7063,-0.7152,-0.7176,-0.7208,-0.7285,-0.732,-0.737,-0.7427,-0.7444,-0.7522,-0.7584,-0.7649,-0.7734,-0.7766,-0.7821,-0.7838,-0.7798,-0.7805,-0.7815,-0.7813,-0.7834,-0.7841,-0.7854,-0.7854,-0.7854,0,-0.6936,-0.6969,-0.7062,-0.7096,-0.7137,-0.7191,-0.7231,-0.7297,-0.7337,-0.7418,-0.7445,-0.7511,-0.7568,-0.7666,-0.773,-0.7796,-0.7815,-0.7818,-0.7825,-0.7808,-0.7816,-0.7814,-0.7818,-0.7815,-0.7815,-0.7815,-0.7814,0,-0.693,-0.696,-0.7016,-0.7082,-0.7129,-0.7185,-0.7242,-0.7267,-0.7345,-0.7387,-0.7451,-0.7495,-0.7582,-0.7648,-0.7721,-0.7766,-0.7803,-0.7811,-0.7818,-0.7802,-0.7777,-0.7792,-0.7792,-0.7811,-0.7811,-0.7811,-0.7811,-0.7812,-0.6917,-0.6949,-0.7019,-0.708,-0.713,-0.7183,-0.7221,-0.7276,-0.7331,-0.7406,-0.7442,-0.7507,-0.7576,-0.7678,-0.7722,-0.7774,-0.7785,-0.7794,-0.7796,-0.7798,-0.7794,-0.7768,-0.7787,-0.7788,-0.7788,-0.7788,-0.7788,0,-0.6914,-0.6962,-0.7017,-0.7096,-0.7144,-0.7174,-0.724,-0.7278,-0.7334,-0.7395,-0.745,-0.7524,-0.7589,-0.7658,-0.7726,-0.7755,-0.7774,-0.7771,-0.777,-0.7779,-0.778,-0.7768,-0.7754,-0.7754,-0.7754,-0.7754,-0.7754,-0.7754,-0.6919,-0.6976,-0.7014,-0.7097,-0.7145,-0.7208,-0.7243,-0.7293,-0.7342,-0.7422,-0.7476,-0.7521,-0.7585,-0.7659,-0.7719,-0.7738,-0.7761,-0.7753,-0.7777,-0.7777,-0.7779,-0.7782,-0.7771,-0.7757,-0.7757,-0.7772,-0.7772,-0.7772]}]]